Location: Agua Amarilla
(10.0342°N, 66.8490°W)
Time: 22:23:27
(UTC+00:00)

USA 229 - Pass Details

Date: 26 June 2022
Orbit: 930 x 1282 km, 63.4° (Epoch: 14 August)

Event Time Altitude Azimuth Distance (km) Brightness Sun altitude
Rises 23:18:14 0° 333° (NNW) 4,156 7.7 -6.8°
Reaches altitude 10° 23:20:58 10° 332° (NNW) 3,220 7.1 -7.4°
Maximum altitude 23:28:49 76° 248° (WSW) 1,314 4.3 -9.1°
Drops below altitude 10° 23:36:48 10° 163° (SSE) 3,260 5.8 -10.9°
Enters shadow 23:39:35 - 161° (SSE) 4,207 6.4 -11.5°
